Year,Month,Day,Hour,Minute,Value (Times are PST for windgust in km/hr)
2011,11,11,00,00,14.50
2011,11,11,00,01,14.50
2011,11,11,00,02,14.50
2011,11,11,00,03,16.10
2011,11,11,00,04,14.50
2011,11,11,00,05,11.30
2011,11,11,00,06,12.90
2011,11,11,00,07,14.50
2011,11,11,00,08,17.70
2011,11,11,00,09,19.30
2011,11,11,00,10,20.90
2011,11,11,00,11,20.90
2011,11,11,00,12,19.30
2011,11,11,00,13,16.10
2011,11,11,00,14,20.90
2011,11,11,00,15,20.90
2011,11,11,00,16,17.70
2011,11,11,00,17,17.70
2011,11,11,00,18,16.10
2011,11,11,00,19,17.70
2011,11,11,00,20,11.30
2011,11,11,00,21,9.60
2011,11,11,00,22,14.50
2011,11,11,00,23,9.60
2011,11,11,00,24,11.30
2011,11,11,00,25,8.10
2011,11,11,00,26,9.60
2011,11,11,00,27,9.60
2011,11,11,00,28,11.30
2011,11,11,00,29,12.90
2011,11,11,00,30,8.10
2011,11,11,00,31,11.30
2011,11,11,00,32,11.30
2011,11,11,00,33,8.10
2011,11,11,00,34,6.40
2011,11,11,00,35,6.40
2011,11,11,00,36,6.40
2011,11,11,00,37,8.10
2011,11,11,00,38,11.30
2011,11,11,00,39,8.10
2011,11,11,00,40,12.90
2011,11,11,00,41,16.10
2011,11,11,00,42,9.60
2011,11,11,00,43,6.40
2011,11,11,00,44,6.40
2011,11,11,00,45,8.10
2011,11,11,00,46,9.60
2011,11,11,00,47,6.40
2011,11,11,00,48,8.10
2011,11,11,00,49,8.10
2011,11,11,00,50,8.10
2011,11,11,00,51,9.60
2011,11,11,00,52,6.40
2011,11,11,00,53,6.40
2011,11,11,00,54,4.80
2011,11,11,00,55,4.80
2011,11,11,00,56,6.40
2011,11,11,00,57,4.80
2011,11,11,00,58,4.80
2011,11,11,00,59,9.60
2011,11,11,01,00,9.60
2011,11,11,01,01,6.40
2011,11,11,01,02,8.10
2011,11,11,01,03,9.60
2011,11,11,01,04,8.10
2011,11,11,01,05,8.10
2011,11,11,01,06,8.10
2011,11,11,01,07,6.40
2011,11,11,01,08,8.10
2011,11,11,01,09,6.40
2011,11,11,01,10,6.40
2011,11,11,01,11,4.80
2011,11,11,01,12,4.80
2011,11,11,01,13,4.80
2011,11,11,01,14,6.40
2011,11,11,01,15,6.40
2011,11,11,01,16,6.40
2011,11,11,01,17,8.10
2011,11,11,01,18,9.60
2011,11,11,01,19,8.10
2011,11,11,01,20,6.40
2011,11,11,01,21,3.20
2011,11,11,01,22,1.60
2011,11,11,01,23,4.80
2011,11,11,01,24,4.80
2011,11,11,01,25,8.10
2011,11,11,01,26,9.60
2011,11,11,01,27,8.10
2011,11,11,01,28,6.40
2011,11,11,01,29,9.60
2011,11,11,01,30,9.60
2011,11,11,01,31,9.60
2011,11,11,01,32,11.30
2011,11,11,01,33,11.30
2011,11,11,01,34,11.30
2011,11,11,01,35,16.10
2011,11,11,01,36,12.90
2011,11,11,01,37,14.50
2011,11,11,01,38,12.90
2011,11,11,01,39,9.60
2011,11,11,01,40,6.40
2011,11,11,01,41,4.80
2011,11,11,01,42,4.80
2011,11,11,01,43,6.40
2011,11,11,01,44,9.60
2011,11,11,01,45,6.40
2011,11,11,01,46,9.60
2011,11,11,01,47,19.30
2011,11,11,01,48,14.50
2011,11,11,01,49,14.50
2011,11,11,01,50,16.10
2011,11,11,01,51,9.60
2011,11,11,01,52,11.30
2011,11,11,01,53,14.50
2011,11,11,01,54,14.50
2011,11,11,01,55,16.10
2011,11,11,01,56,16.10
2011,11,11,01,57,19.30
2011,11,11,01,58,17.70
2011,11,11,01,59,16.10
2011,11,11,02,00,19.30
2011,11,11,02,01,19.30
2011,11,11,02,02,17.70
2011,11,11,02,03,16.10
2011,11,11,02,04,19.30
2011,11,11,02,05,16.10
2011,11,11,02,06,16.10
2011,11,11,02,07,14.50
2011,11,11,02,08,17.70
2011,11,11,02,09,16.10
2011,11,11,02,10,16.10
2011,11,11,02,11,11.30
2011,11,11,02,12,11.30
2011,11,11,02,13,8.10
2011,11,11,02,14,11.30
2011,11,11,02,15,11.30
2011,11,11,02,16,11.30
2011,11,11,02,17,6.40
2011,11,11,02,18,4.80
2011,11,11,02,19,9.60
2011,11,11,02,20,8.10
2011,11,11,02,21,6.40
2011,11,11,02,22,8.10
2011,11,11,02,23,8.10
2011,11,11,02,24,8.10
2011,11,11,02,25,8.10
2011,11,11,02,26,8.10
2011,11,11,02,27,8.10
2011,11,11,02,28,8.10
2011,11,11,02,29,8.10
2011,11,11,02,30,8.10
2011,11,11,02,31,4.80
2011,11,11,02,32,3.20
2011,11,11,02,33,3.20
2011,11,11,02,35,1.60
2011,11,11,02,36,3.20
2011,11,11,02,37,3.20
2011,11,11,02,38,3.20
2011,11,11,02,39,3.20
2011,11,11,02,40,1.60
2011,11,11,02,41,4.80
2011,11,11,02,42,4.80
2011,11,11,02,43,3.20
2011,11,11,02,44,4.80
2011,11,11,02,45,4.80
2011,11,11,02,46,4.80
2011,11,11,02,47,4.80
2011,11,11,02,48,4.80
2011,11,11,02,49,6.40
2011,11,11,02,50,6.40
2011,11,11,02,51,9.60
2011,11,11,02,52,16.10
2011,11,11,02,53,20.90
2011,11,11,02,54,19.30
2011,11,11,02,55,25.70
2011,11,11,02,56,25.70
2011,11,11,02,57,24.20
2011,11,11,02,58,22.50
2011,11,11,02,59,20.90
2011,11,11,03,00,22.50
2011,11,11,03,01,25.70
2011,11,11,03,02,25.70
2011,11,11,03,03,27.40
2011,11,11,03,04,29.00
2011,11,11,03,05,29.00
2011,11,11,03,06,24.20
2011,11,11,03,07,25.70
2011,11,11,03,08,29.00
2011,11,11,03,09,32.20
2011,11,11,03,10,29.00
2011,11,11,03,11,24.20
2011,11,11,03,12,24.20
2011,11,11,03,13,24.20
2011,11,11,03,14,29.00
2011,11,11,03,15,20.90
2011,11,11,03,16,20.90
2011,11,11,03,17,17.70
2011,11,11,03,18,22.50
2011,11,11,03,19,19.30
2011,11,11,03,20,27.40
2011,11,11,03,21,20.90
2011,11,11,03,22,22.50
2011,11,11,03,23,19.30
2011,11,11,03,24,24.20
2011,11,11,03,25,20.90
2011,11,11,03,26,20.90
2011,11,11,03,27,17.70
2011,11,11,03,28,20.90
2011,11,11,03,29,19.30
2011,11,11,03,30,22.50
2011,11,11,03,31,22.50
2011,11,11,03,32,24.20
2011,11,11,03,33,17.70
2011,11,11,03,34,16.10
2011,11,11,03,35,17.70
2011,11,11,03,36,19.30
2011,11,11,03,37,19.30
2011,11,11,03,38,20.90
2011,11,11,03,39,25.70
2011,11,11,03,40,17.70
2011,11,11,03,41,16.10
2011,11,11,03,42,11.30
2011,11,11,03,43,11.30
2011,11,11,03,44,22.50
2011,11,11,03,45,19.30
2011,11,11,03,46,11.30
2011,11,11,03,47,17.70
2011,11,11,03,48,22.50
2011,11,11,03,49,19.30
2011,11,11,03,50,19.30
2011,11,11,03,51,20.90
2011,11,11,03,52,24.20
2011,11,11,03,53,25.70
2011,11,11,03,54,17.70
2011,11,11,03,55,17.70
2011,11,11,03,56,25.70
2011,11,11,03,57,20.90
2011,11,11,03,58,19.30
2011,11,11,03,59,25.70
2011,11,11,04,00,29.00
2011,11,11,04,01,29.00
2011,11,11,04,02,27.40
2011,11,11,04,03,24.20
2011,11,11,04,04,19.30
2011,11,11,04,05,17.70
2011,11,11,04,06,22.50
2011,11,11,04,07,19.30
2011,11,11,04,08,22.50
2011,11,11,04,09,19.30
2011,11,11,04,10,20.90
2011,11,11,04,11,22.50
2011,11,11,04,12,16.10
2011,11,11,04,13,20.90
2011,11,11,04,14,16.10
2011,11,11,04,15,14.50
2011,11,11,04,16,24.20
2011,11,11,04,17,25.70
2011,11,11,04,18,17.70
2011,11,11,04,19,24.20
2011,11,11,04,20,27.40
2011,11,11,04,21,24.20
2011,11,11,04,22,16.10
2011,11,11,04,23,29.00
2011,11,11,04,24,22.50
2011,11,11,04,25,22.50
2011,11,11,04,26,20.90
2011,11,11,04,27,22.50
2011,11,11,04,28,17.70
2011,11,11,04,29,17.70
2011,11,11,04,30,22.50
2011,11,11,04,31,25.70
2011,11,11,04,32,17.70
2011,11,11,04,33,17.70
2011,11,11,04,34,19.30
2011,11,11,04,35,22.50
2011,11,11,04,36,17.70
2011,11,11,04,37,17.70
2011,11,11,04,38,19.30
2011,11,11,04,39,16.10
2011,11,11,04,40,16.10
2011,11,11,04,41,17.70
2011,11,11,04,42,29.00
2011,11,11,04,43,20.90
2011,11,11,04,44,27.40
2011,11,11,04,45,27.40
2011,11,11,04,46,35.40
2011,11,11,04,47,24.20
2011,11,11,04,48,25.70
2011,11,11,04,49,24.20
2011,11,11,04,50,24.20
2011,11,11,04,51,29.00
2011,11,11,04,52,24.20
2011,11,11,04,53,32.20
2011,11,11,04,54,30.60
2011,11,11,04,55,33.80
2011,11,11,04,56,25.70
2011,11,11,04,57,24.20
2011,11,11,04,58,29.00
2011,11,11,04,59,30.60
2011,11,11,05,00,27.40
2011,11,11,05,01,30.60
2011,11,11,05,02,27.40
2011,11,11,05,03,22.50
2011,11,11,05,04,22.50
2011,11,11,05,05,27.40
2011,11,11,05,06,27.40
2011,11,11,05,07,27.40
2011,11,11,05,08,24.20
2011,11,11,05,09,24.20
2011,11,11,05,10,25.70
2011,11,11,05,11,30.60
2011,11,11,05,12,27.40
2011,11,11,05,13,20.90
2011,11,11,05,14,19.30
2011,11,11,05,15,19.30
2011,11,11,05,16,20.90
2011,11,11,05,17,17.70
2011,11,11,05,18,17.70
2011,11,11,05,19,19.30
2011,11,11,05,20,25.70
2011,11,11,05,21,17.70
2011,11,11,05,22,27.40
2011,11,11,05,23,22.50
2011,11,11,05,24,20.90
2011,11,11,05,25,24.20
2011,11,11,05,26,19.30
2011,11,11,05,27,20.90
2011,11,11,05,28,25.70
2011,11,11,05,29,24.20
2011,11,11,05,30,29.00
2011,11,11,05,31,24.20
2011,11,11,05,32,19.30
2011,11,11,05,33,20.90
2011,11,11,05,34,24.20
2011,11,11,05,35,20.90
2011,11,11,05,36,17.70
2011,11,11,05,37,16.10
2011,11,11,05,38,17.70
2011,11,11,05,39,17.70
2011,11,11,05,40,16.10
2011,11,11,05,41,16.10
2011,11,11,05,42,20.90
2011,11,11,05,43,16.10
2011,11,11,05,44,19.30
2011,11,11,05,45,20.90
2011,11,11,05,46,19.30
2011,11,11,05,47,11.30
2011,11,11,05,48,17.70
2011,11,11,05,49,22.50
2011,11,11,05,50,22.50
2011,11,11,05,51,20.90
2011,11,11,05,52,20.90
2011,11,11,05,53,27.40
2011,11,11,05,54,24.20
2011,11,11,05,55,27.40
2011,11,11,05,56,24.20
2011,11,11,05,57,19.30
2011,11,11,05,58,27.40
2011,11,11,05,59,27.40
2011,11,11,06,00,24.20
2011,11,11,06,01,17.70
2011,11,11,06,02,19.30
2011,11,11,06,03,17.70
2011,11,11,06,04,17.70
2011,11,11,06,05,25.70
2011,11,11,06,06,17.70
2011,11,11,06,07,20.90
2011,11,11,06,08,14.50
2011,11,11,06,09,17.70
2011,11,11,06,10,22.50
2011,11,11,06,11,22.50
2011,11,11,06,12,19.30
2011,11,11,06,13,17.70
2011,11,11,06,14,24.20
2011,11,11,06,15,19.30
2011,11,11,06,16,19.30
2011,11,11,06,17,17.70
2011,11,11,06,18,17.70
2011,11,11,06,19,20.90
2011,11,11,06,20,17.70
2011,11,11,06,21,24.20
2011,11,11,06,22,16.10
2011,11,11,06,23,16.10
2011,11,11,06,24,16.10
2011,11,11,06,25,19.30
2011,11,11,06,26,14.50
2011,11,11,06,27,14.50
2011,11,11,06,28,17.70
2011,11,11,06,29,14.50
2011,11,11,06,30,25.70
2011,11,11,06,31,19.30
2011,11,11,06,32,20.90
2011,11,11,06,33,20.90
2011,11,11,06,34,16.10
2011,11,11,06,35,17.70
2011,11,11,06,36,17.70
2011,11,11,06,37,19.30
2011,11,11,06,38,17.70
2011,11,11,06,39,25.70
2011,11,11,06,40,17.70
2011,11,11,06,41,19.30
2011,11,11,06,42,20.90
2011,11,11,06,43,20.90
2011,11,11,06,44,19.30
2011,11,11,06,45,24.20
2011,11,11,06,46,20.90
2011,11,11,06,47,19.30
2011,11,11,06,48,22.50
2011,11,11,06,49,17.70
2011,11,11,06,50,20.90
2011,11,11,06,51,17.70
2011,11,11,06,52,19.30
2011,11,11,06,53,24.20
2011,11,11,06,54,17.70
2011,11,11,06,55,17.70
2011,11,11,06,56,19.30
2011,11,11,06,57,22.50
2011,11,11,06,58,20.90
2011,11,11,06,59,27.40
2011,11,11,07,00,24.20
2011,11,11,07,01,29.00
2011,11,11,07,02,27.40
2011,11,11,07,03,29.00
2011,11,11,07,04,17.70
2011,11,11,07,05,24.20
2011,11,11,07,06,30.60
2011,11,11,07,07,22.50
2011,11,11,07,08,20.90
2011,11,11,07,09,22.50
2011,11,11,07,10,25.70
2011,11,11,07,11,20.90
2011,11,11,07,12,25.70
2011,11,11,07,13,24.20
2011,11,11,07,14,32.20
2011,11,11,07,15,20.90
2011,11,11,07,16,24.20
2011,11,11,07,17,25.70
2011,11,11,07,18,24.20
2011,11,11,07,19,19.30
2011,11,11,07,20,22.50
2011,11,11,07,21,17.70
2011,11,11,07,22,19.30
2011,11,11,07,23,20.90
2011,11,11,07,24,22.50
2011,11,11,07,25,29.00
2011,11,11,07,26,24.20
2011,11,11,07,27,17.70
2011,11,11,07,28,16.10
2011,11,11,07,29,17.70
2011,11,11,07,30,16.10
2011,11,11,07,31,12.90
2011,11,11,07,32,12.90
2011,11,11,07,33,9.60
2011,11,11,07,34,19.30
2011,11,11,07,35,19.30
2011,11,11,07,36,19.30
2011,11,11,07,37,19.30
2011,11,11,07,38,16.10
2011,11,11,07,39,12.90
2011,11,11,07,40,12.90
2011,11,11,07,41,16.10
2011,11,11,07,42,9.60
2011,11,11,07,43,8.10
2011,11,11,07,44,12.90
2011,11,11,07,45,8.10
2011,11,11,07,46,11.30
2011,11,11,07,47,9.60
2011,11,11,07,48,11.30
2011,11,11,07,49,16.10
2011,11,11,07,50,9.60
2011,11,11,07,51,12.90
2011,11,11,07,52,17.70
2011,11,11,07,53,11.30
2011,11,11,07,54,14.50
2011,11,11,07,55,16.10
2011,11,11,07,56,20.90
2011,11,11,07,57,16.10
2011,11,11,07,58,14.50
2011,11,11,07,59,16.10
2011,11,11,08,00,16.10
2011,11,11,08,01,9.60
2011,11,11,08,02,9.60
2011,11,11,08,03,11.30
2011,11,11,08,04,11.30
2011,11,11,08,05,8.10
2011,11,11,08,06,8.10
2011,11,11,08,07,12.90
2011,11,11,08,08,11.30
2011,11,11,08,09,11.30
2011,11,11,08,10,12.90
2011,11,11,08,11,9.60
2011,11,11,08,12,14.50
2011,11,11,08,13,14.50
2011,11,11,08,14,14.50
2011,11,11,08,15,16.10
2011,11,11,08,16,16.10
2011,11,11,08,17,16.10
2011,11,11,08,18,9.60
2011,11,11,08,19,9.60
2011,11,11,08,20,9.60
2011,11,11,08,21,11.30
2011,11,11,08,22,9.60
2011,11,11,08,23,14.50
2011,11,11,08,24,16.10
2011,11,11,08,25,11.30
2011,11,11,08,26,9.60
2011,11,11,08,27,8.10
2011,11,11,08,28,8.10
2011,11,11,08,29,8.10
2011,11,11,08,30,6.40
2011,11,11,08,31,4.80
2011,11,11,08,32,4.80
2011,11,11,08,33,4.80
2011,11,11,08,34,6.40
2011,11,11,08,35,9.60
2011,11,11,08,36,9.60
2011,11,11,08,37,11.30
2011,11,11,08,38,9.60
2011,11,11,08,39,8.10
2011,11,11,08,40,8.10
2011,11,11,08,41,8.10
2011,11,11,08,42,6.40
2011,11,11,08,43,4.80
2011,11,11,08,44,4.80
2011,11,11,08,45,3.20
2011,11,11,08,46,1.60
2011,11,11,08,48,4.80
2011,11,11,08,49,4.80
2011,11,11,08,50,8.10
2011,11,11,08,51,8.10
2011,11,11,08,52,6.40
2011,11,11,08,53,6.40
2011,11,11,08,54,8.10
2011,11,11,08,55,11.30
2011,11,11,08,56,8.10
2011,11,11,08,57,8.10
2011,11,11,08,58,8.10
2011,11,11,08,59,6.40
2011,11,11,09,00,6.40
2011,11,11,09,01,6.40
2011,11,11,09,02,4.80
2011,11,11,09,03,6.40
2011,11,11,09,04,3.20
2011,11,11,09,05,3.20
2011,11,11,09,07,3.20
2011,11,11,09,08,3.20
2011,11,11,09,09,3.20
2011,11,11,09,10,3.20
2011,11,11,09,11,6.40
2011,11,11,09,12,6.40
2011,11,11,09,13,4.80
2011,11,11,09,14,6.40
2011,11,11,09,15,4.80
2011,11,11,09,16,4.80
2011,11,11,09,17,4.80
2011,11,11,09,18,3.20
2011,11,11,09,19,3.20
2011,11,11,09,20,6.40
2011,11,11,09,21,6.40
2011,11,11,09,22,11.30
2011,11,11,09,23,11.30
2011,11,11,09,24,14.50
2011,11,11,09,25,16.10
2011,11,11,09,26,11.30
2011,11,11,09,27,9.60
2011,11,11,09,28,9.60
2011,11,11,09,29,11.30
2011,11,11,09,30,11.30
2011,11,11,09,31,9.60
2011,11,11,09,32,9.60
2011,11,11,09,33,11.30
2011,11,11,09,34,16.10
2011,11,11,09,35,16.10
2011,11,11,09,36,14.50
2011,11,11,09,37,14.50
2011,11,11,09,38,11.30
2011,11,11,09,39,9.60
2011,11,11,09,40,11.30
2011,11,11,09,41,9.60
2011,11,11,09,42,11.30
2011,11,11,09,43,9.60
2011,11,11,09,44,11.30
2011,11,11,09,45,11.30
2011,11,11,09,46,14.50
2011,11,11,09,47,12.90
2011,11,11,09,48,16.10
2011,11,11,09,49,11.30
2011,11,11,09,50,11.30
2011,11,11,09,51,16.10
2011,11,11,09,52,11.30
2011,11,11,09,53,16.10
2011,11,11,09,54,16.10
2011,11,11,09,55,12.90
2011,11,11,09,56,9.60
2011,11,11,09,57,11.30
2011,11,11,09,58,11.30
2011,11,11,09,59,9.60
2011,11,11,10,00,17.70
2011,11,11,10,01,17.70
2011,11,11,10,02,11.30
2011,11,11,10,03,11.30
2011,11,11,10,04,14.50
2011,11,11,10,05,17.70
2011,11,11,10,06,16.10
2011,11,11,10,07,19.30
2011,11,11,10,08,12.90
2011,11,11,10,09,11.30
2011,11,11,10,10,16.10
2011,11,11,10,11,14.50
2011,11,11,10,12,17.70
2011,11,11,10,13,17.70
2011,11,11,10,14,14.50
2011,11,11,10,15,16.10
2011,11,11,10,16,16.10
2011,11,11,10,17,9.60
2011,11,11,10,18,9.60
2011,11,11,10,19,9.60
2011,11,11,10,20,11.30
2011,11,11,10,21,14.50
2011,11,11,10,22,17.70
2011,11,11,10,23,17.70
2011,11,11,10,24,14.50
2011,11,11,10,25,11.30
2011,11,11,10,26,9.60
2011,11,11,10,27,6.40
2011,11,11,10,28,9.60
2011,11,11,10,29,11.30
2011,11,11,10,30,19.30
2011,11,11,10,31,20.90
2011,11,11,10,32,22.50
2011,11,11,10,33,20.90
2011,11,11,10,34,14.50
2011,11,11,10,35,17.70
2011,11,11,10,36,16.10
2011,11,11,10,37,9.60
2011,11,11,10,38,12.90
2011,11,11,10,39,19.30
2011,11,11,10,40,20.90
2011,11,11,10,41,19.30
2011,11,11,10,42,20.90
2011,11,11,10,43,20.90
2011,11,11,10,44,11.30
2011,11,11,10,45,14.50
2011,11,11,10,46,16.10
2011,11,11,10,47,16.10
2011,11,11,10,48,16.10
2011,11,11,10,49,17.70
2011,11,11,10,50,16.10
2011,11,11,10,51,16.10
2011,11,11,10,52,9.60
2011,11,11,10,53,16.10
2011,11,11,10,54,11.30
2011,11,11,10,55,17.70
2011,11,11,10,56,19.30
2011,11,11,10,57,19.30
2011,11,11,10,58,17.70
2011,11,11,10,59,17.70
2011,11,11,11,00,14.50
2011,11,11,11,01,16.10
2011,11,11,11,02,16.10
2011,11,11,11,03,12.90
2011,11,11,11,04,17.70
2011,11,11,11,05,11.30
2011,11,11,11,06,11.30
2011,11,11,11,07,9.60
2011,11,11,11,08,8.10
2011,11,11,11,09,9.60
2011,11,11,11,10,11.30
2011,11,11,11,11,8.10
2011,11,11,11,12,9.60
2011,11,11,11,13,16.10
2011,11,11,11,14,17.70
2011,11,11,11,15,16.10
2011,11,11,11,16,16.10
2011,11,11,11,17,16.10
2011,11,11,11,18,8.10
2011,11,11,11,19,4.80
2011,11,11,11,20,6.40
2011,11,11,11,21,8.10
2011,11,11,11,22,9.60
2011,11,11,11,23,6.40
2011,11,11,11,24,9.60
2011,11,11,11,25,6.40
2011,11,11,11,26,11.30
2011,11,11,11,27,11.30
2011,11,11,11,28,12.90
2011,11,11,11,29,14.50
2011,11,11,11,30,17.70
2011,11,11,11,31,17.70
2011,11,11,11,32,24.20
2011,11,11,11,33,22.50
2011,11,11,11,34,25.70
2011,11,11,11,35,24.20
2011,11,11,11,36,24.20
2011,11,11,11,37,19.30
2011,11,11,11,38,25.70
2011,11,11,11,39,29.00
2011,11,11,11,40,24.20
2011,11,11,11,41,27.40
2011,11,11,11,42,22.50
2011,11,11,11,43,25.70
2011,11,11,11,44,20.90
2011,11,11,11,45,16.10
2011,11,11,11,46,16.10
2011,11,11,11,47,16.10
2011,11,11,11,48,16.10
2011,11,11,11,49,19.30
2011,11,11,11,50,22.50
2011,11,11,11,51,19.30
2011,11,11,11,52,19.30
2011,11,11,11,53,19.30
2011,11,11,11,54,8.10
2011,11,11,11,55,9.60
2011,11,11,11,56,11.30
2011,11,11,11,57,16.10
2011,11,11,11,58,12.90
2011,11,11,11,59,14.50
2011,11,11,12,00,16.10
2011,11,11,12,01,16.10
2011,11,11,12,02,14.50
2011,11,11,12,03,11.30
2011,11,11,12,04,9.60
2011,11,11,12,05,11.30
2011,11,11,12,06,9.60
2011,11,11,12,07,9.60
2011,11,11,12,08,9.60
2011,11,11,12,09,8.10
2011,11,11,12,10,8.10
2011,11,11,12,11,8.10
2011,11,11,12,12,9.60
2011,11,11,12,13,6.40
2011,11,11,12,14,3.20
2011,11,11,12,15,4.80
2011,11,11,12,16,6.40
2011,11,11,12,17,6.40
2011,11,11,12,18,8.10
2011,11,11,12,19,8.10
2011,11,11,12,20,8.10
2011,11,11,12,21,6.40
2011,11,11,12,22,4.80
2011,11,11,12,23,6.40
2011,11,11,12,24,6.40
2011,11,11,12,25,22.50
2011,11,11,12,26,33.80
2011,11,11,12,27,37.00
2011,11,11,12,28,24.20
2011,11,11,12,29,27.40
2011,11,11,12,30,24.20
2011,11,11,12,31,22.50
2011,11,11,12,32,14.50
2011,11,11,12,33,30.60
2011,11,11,12,34,24.20
2011,11,11,12,35,29.00
2011,11,11,12,36,30.60
2011,11,11,12,37,24.20
2011,11,11,12,38,29.00
2011,11,11,12,39,19.30
2011,11,11,12,40,17.70
2011,11,11,12,41,29.00
2011,11,11,12,42,35.40
2011,11,11,12,43,22.50
2011,11,11,12,44,17.70
2011,11,11,12,45,22.50
2011,11,11,12,46,25.70
2011,11,11,12,47,27.40
2011,11,11,12,48,29.00
2011,11,11,12,49,29.00
2011,11,11,12,50,20.90
2011,11,11,12,51,37.00
2011,11,11,12,52,19.30
2011,11,11,12,53,19.30
2011,11,11,12,54,19.30
2011,11,11,12,55,14.50
2011,11,11,12,56,16.10
2011,11,11,12,57,17.70
2011,11,11,12,58,17.70
2011,11,11,12,59,11.30
2011,11,11,13,00,16.10
2011,11,11,13,01,11.30
2011,11,11,13,02,16.10
2011,11,11,13,03,22.50
2011,11,11,13,04,25.70
2011,11,11,13,05,33.80
2011,11,11,13,06,37.00
2011,11,11,13,07,29.00
2011,11,11,13,08,33.80
2011,11,11,13,09,25.70
2011,11,11,13,10,59.50
2011,11,11,13,11,61.20
2011,11,11,13,12,46.70
2011,11,11,13,13,53.10
2011,11,11,13,14,53.10
2011,11,11,13,15,46.70
2011,11,11,13,16,43.50
2011,11,11,13,17,49.90
2011,11,11,13,18,53.10
2011,11,11,13,19,40.20
2011,11,11,13,20,46.70
2011,11,11,13,21,51.50
2011,11,11,13,22,51.50
2011,11,11,13,23,40.20
2011,11,11,13,24,33.80
2011,11,11,13,25,40.20
2011,11,11,13,26,46.70
2011,11,11,13,27,51.50
2011,11,11,13,28,57.90
2011,11,11,13,29,51.50
2011,11,11,13,30,33.80
2011,11,11,13,31,40.20
2011,11,11,13,32,37.00
2011,11,11,13,33,30.60
2011,11,11,13,34,37.00
2011,11,11,13,35,43.50
2011,11,11,13,36,43.50
2011,11,11,13,37,38.60
2011,11,11,13,38,37.00
2011,11,11,13,39,35.40
2011,11,11,13,40,38.60
2011,11,11,13,41,25.70
2011,11,11,13,42,46.70
2011,11,11,13,43,41.80
2011,11,11,13,44,49.90
2011,11,11,13,45,38.60
2011,11,11,13,46,37.00
2011,11,11,13,47,38.60
2011,11,11,13,48,27.40
2011,11,11,13,49,37.00
2011,11,11,13,50,35.40
2011,11,11,13,51,41.80
2011,11,11,13,52,46.70
2011,11,11,13,53,48.30
2011,11,11,13,54,45.10
2011,11,11,13,55,41.80
2011,11,11,13,56,33.80
2011,11,11,13,57,37.00
2011,11,11,13,58,33.80
2011,11,11,13,59,29.00
2011,11,11,14,00,27.40
2011,11,11,14,01,37.00
2011,11,11,14,02,27.40
2011,11,11,14,03,29.00
2011,11,11,14,04,37.00
2011,11,11,14,05,33.80
2011,11,11,14,06,25.70
2011,11,11,14,07,20.90
2011,11,11,14,08,24.20
2011,11,11,14,09,30.60
2011,11,11,14,10,29.00
2011,11,11,14,11,30.60
2011,11,11,14,12,41.80
2011,11,11,14,13,45.10
2011,11,11,14,14,40.20
2011,11,11,14,15,29.00
2011,11,11,14,16,33.80
2011,11,11,14,17,25.70
2011,11,11,14,18,27.40
2011,11,11,14,19,35.40
2011,11,11,14,20,37.00
2011,11,11,14,21,38.60
2011,11,11,14,22,37.00
2011,11,11,14,23,29.00
2011,11,11,14,24,35.40
2011,11,11,14,25,38.60
2011,11,11,14,26,38.60
2011,11,11,14,27,35.40
2011,11,11,14,28,29.00
2011,11,11,14,29,40.20
2011,11,11,14,30,32.20
2011,11,11,14,31,35.40
2011,11,11,14,32,27.40
2011,11,11,14,33,27.40
2011,11,11,14,34,33.80
2011,11,11,14,35,32.20
2011,11,11,14,36,30.60
2011,11,11,14,37,29.00
2011,11,11,14,38,40.20
2011,11,11,14,39,56.30
2011,11,11,14,40,45.10
2011,11,11,14,41,37.00
2011,11,11,14,42,38.60
2011,11,11,14,43,41.80
2011,11,11,14,44,37.00
2011,11,11,14,45,29.00
2011,11,11,14,46,33.80
2011,11,11,14,47,35.40
2011,11,11,14,48,25.70
2011,11,11,14,49,33.80
2011,11,11,14,50,33.80
2011,11,11,14,51,30.60
2011,11,11,14,52,30.60
2011,11,11,14,53,37.00
2011,11,11,14,54,30.60
2011,11,11,14,55,40.20
2011,11,11,14,56,29.00
2011,11,11,14,57,30.60
2011,11,11,14,58,30.60
2011,11,11,14,59,24.20
2011,11,11,15,00,27.40
2011,11,11,15,01,32.20
2011,11,11,15,02,32.20
2011,11,11,15,03,27.40
2011,11,11,15,04,30.60
2011,11,11,15,05,32.20
2011,11,11,15,06,22.50
2011,11,11,15,07,32.20
2011,11,11,15,08,30.60
2011,11,11,15,09,29.00
2011,11,11,15,10,25.70
2011,11,11,15,11,32.20
2011,11,11,15,12,37.00
2011,11,11,15,13,25.70
2011,11,11,15,14,29.00
2011,11,11,15,15,25.70
2011,11,11,15,16,29.00
2011,11,11,15,17,24.20
2011,11,11,15,18,25.70
2011,11,11,15,19,30.60
2011,11,11,15,20,32.20
2011,11,11,15,21,35.40
2011,11,11,15,22,40.20
2011,11,11,15,23,32.20
2011,11,11,15,24,37.00
2011,11,11,15,25,33.80
2011,11,11,15,26,29.00
2011,11,11,15,27,29.00
2011,11,11,15,28,41.80
2011,11,11,15,29,32.20
2011,11,11,15,30,22.50
2011,11,11,15,31,29.00
2011,11,11,15,32,37.00
2011,11,11,15,33,32.20
2011,11,11,15,34,33.80
2011,11,11,15,35,33.80
2011,11,11,15,36,32.20
2011,11,11,15,37,29.00
2011,11,11,15,38,35.40
2011,11,11,15,39,33.80
2011,11,11,15,40,38.60
2011,11,11,15,41,43.50
2011,11,11,15,42,38.60
2011,11,11,15,43,29.00
2011,11,11,15,44,35.40
2011,11,11,15,45,40.20
2011,11,11,15,46,27.40
2011,11,11,15,47,29.00
2011,11,11,15,48,27.40
2011,11,11,15,49,40.20
2011,11,11,15,50,35.40
2011,11,11,15,51,27.40
2011,11,11,15,52,38.60
2011,11,11,15,53,32.20
2011,11,11,15,54,29.00
2011,11,11,15,55,35.40
2011,11,11,15,56,33.80
2011,11,11,15,57,29.00
2011,11,11,15,58,38.60
2011,11,11,15,59,30.60
2011,11,11,16,00,32.20
2011,11,11,16,01,38.60
2011,11,11,16,02,33.80
2011,11,11,16,03,27.40
2011,11,11,16,04,33.80
2011,11,11,16,05,33.80
2011,11,11,16,06,29.00
2011,11,11,16,07,37.00
2011,11,11,16,08,37.00
2011,11,11,16,09,37.00
2011,11,11,16,10,37.00
2011,11,11,16,11,32.20
2011,11,11,16,12,35.40
2011,11,11,16,13,40.20
2011,11,11,16,14,33.80
2011,11,11,16,15,32.20
2011,11,11,16,16,30.60
2011,11,11,16,17,38.60
2011,11,11,16,18,27.40
2011,11,11,16,19,27.40
2011,11,11,16,20,29.00
2011,11,11,16,21,27.40
2011,11,11,16,22,32.20
2011,11,11,16,23,22.50
2011,11,11,16,24,25.70
2011,11,11,16,25,24.20
2011,11,11,16,26,27.40
2011,11,11,16,27,20.90
2011,11,11,16,28,19.30
2011,11,11,16,29,20.90
2011,11,11,16,30,25.70
2011,11,11,16,31,27.40
2011,11,11,16,32,22.50
2011,11,11,16,33,25.70
2011,11,11,16,34,25.70
2011,11,11,16,35,30.60
2011,11,11,16,36,27.40
2011,11,11,16,37,25.70
2011,11,11,16,38,25.70
2011,11,11,16,39,24.20
2011,11,11,16,40,27.40
2011,11,11,16,41,32.20
2011,11,11,16,42,25.70
2011,11,11,16,43,30.60
2011,11,11,16,44,25.70
2011,11,11,16,45,24.20
2011,11,11,16,46,24.20
2011,11,11,16,47,24.20
2011,11,11,16,48,17.70
2011,11,11,16,49,16.10
2011,11,11,16,50,20.90
2011,11,11,16,51,20.90
2011,11,11,16,52,24.20
2011,11,11,16,53,24.20
2011,11,11,16,54,24.20
2011,11,11,16,55,29.00
2011,11,11,16,56,22.50
2011,11,11,16,57,22.50
2011,11,11,16,58,20.90
2011,11,11,16,59,25.70
2011,11,11,17,00,22.50
2011,11,11,17,01,25.70
2011,11,11,17,02,24.20
2011,11,11,17,03,25.70
2011,11,11,17,04,20.90
2011,11,11,17,05,20.90
2011,11,11,17,06,24.20
2011,11,11,17,07,29.00
2011,11,11,17,08,27.40
2011,11,11,17,09,24.20
2011,11,11,17,10,20.90
2011,11,11,17,11,20.90
2011,11,11,17,12,20.90
2011,11,11,17,13,19.30
2011,11,11,17,14,20.90
2011,11,11,17,15,22.50
2011,11,11,17,16,17.70
2011,11,11,17,17,24.20
2011,11,11,17,18,19.30
2011,11,11,17,19,17.70
2011,11,11,17,20,16.10
2011,11,11,17,21,20.90
2011,11,11,17,22,11.30
2011,11,11,17,23,17.70
2011,11,11,17,24,8.10
2011,11,11,17,25,22.50
2011,11,11,17,26,17.70
2011,11,11,17,27,14.50
2011,11,11,17,28,12.90
2011,11,11,17,29,16.10
2011,11,11,17,30,25.70
2011,11,11,17,31,17.70
2011,11,11,17,32,12.90